• In Hungary
  • List of Countries
  • For 7 days
  • Water Temperature
  • Satellite Maps
  • Weather Map
  • News
  • Weather Widgets
  • user-avatar
    Login

    Hourly Weather Ronda

    Today, 15 November, Thursday

    Time Temperature Precipitation Wind Pressure Humidity
    00:00 +12°C° 0 mm 2 mps 702 mmHg 80%
    01:00 +12°C° 0 mm 2 mps 702 mmHg 80%
    02:00 +12°C° 0 mm 2 mps 702 mmHg 81%
    03:00 +12°C° 0 mm 2 mps 702 mmHg 81%
    04:00 +12°C° 0 mm 2 mps 702 mmHg 81%
    05:00 +11°C° 0 mm 1 mps 702 mmHg 81%
    06:00 +11°C° 0 mm 1 mps 702 mmHg 81%
    07:00 +13°C° 0 mm 1 mps 702 mmHg 77%
    08:00 +14°C° 0 mm 1 mps 703 mmHg 73%
    09:00 +15°C° 0 mm 1 mps 703 mmHg 69%
    10:00 +16°C° 0 mm 1 mps 703 mmHg 64%
    11:00 +18°C° 0 mm 1 mps 703 mmHg 59%
    12:00 +19°C° 0 mm 1 mps 704 mmHg 58%
    13:00 +19°C° 0.2 mm 1 mps 704 mmHg 58%
    14:00 +19°C° 0.2 mm 1 mps 703 mmHg 58%
    15:00 +19°C° 0.2 mm 1 mps 703 mmHg 59%
    16:00 +16°C° 0.1 mm 1 mps 703 mmHg 63%
    17:00 +15°C° 0.1 mm 1 mps 703 mmHg 68%
    18:00 +14°C° 0.1 mm 1 mps 703 mmHg 73%
    19:00 +14°C° 0 mm 1 mps 703 mmHg 74%
    20:00 +13°C° 0 mm 1 mps 703 mmHg 75%
    21:00 +13°C° 0 mm 1 mps 703 mmHg 76%
    22:00 +12°C° 0 mm 1 mps 703 mmHg 77%
    23:00 +12°C° 0 mm 2 mps 703 mmHg 78%

    Tomorrow, 16 November, Friday

    Time Temperature Precipitation Wind Pressure Humidity
    00:00 +12°C° 0 mm 2 mps 703 mmHg 78%
    01:00 +12°C° 0 mm 2 mps 703 mmHg 78%
    02:00 +12°C° 0 mm 2 mps 703 mmHg 78%
    03:00 +12°C° 0 mm 2 mps 703 mmHg 79%
    04:00 +12°C° 0 mm 2 mps 703 mmHg 79%
    05:00 +10°C° 0 mm 2 mps 703 mmHg 79%
    06:00 +10°C° 0 mm 2 mps 703 mmHg 80%
    07:00 +12°C° 0 mm 2 mps 703 mmHg 78%
    08:00 +13°C° 0 mm 2 mps 703 mmHg 75%
    09:00 +14°C° 0 mm 2 mps 703 mmHg 73%
    10:00 +14°C° 0 mm 3 mps 703 mmHg 68%
    11:00 +16°C° 0 mm 3 mps 704 mmHg 63%
    12:00 +17°C° 0 mm 3 mps 704 mmHg 58%
    13:00 +17°C° 0 mm 3 mps 703 mmHg 57%
    14:00 +18°C° 0 mm 3 mps 703 mmHg 56%
    15:00 +18°C° 0 mm 2 mps 703 mmHg 55%
    16:00 +16°C° 0 mm 2 mps 703 mmHg 60%
    17:00 +15°C° 0 mm 2 mps 702 mmHg 66%
    18:00 +14°C° 0 mm 1 mps 702 mmHg 71%
    19:00 +13°C° 0 mm 1 mps 702 mmHg 72%
    20:00 +13°C° 0 mm 1 mps 703 mmHg 74%
    21:00 +12°C° 0 mm 1 mps 703 mmHg 75%
    22:00 +12°C° 0 mm 1 mps 703 mmHg 76%
    23:00 +12°C° 0 mm 2 mps 703 mmHg 77%

    Day after tomorrow, 17 November, Saturday

    Time Temperature Precipitation Wind Pressure Humidity
    00:00 +12°C° 0 mm 2 mps 702 mmHg 78%
    01:00 +12°C° 0 mm 2 mps 702 mmHg 78%
    02:00 +12°C° 0 mm 2 mps 702 mmHg 78%
    03:00 +10°C° 0 mm 2 mps 702 mmHg 78%
    04:00 +10°C° 0 mm 2 mps 702 mmHg 78%
    05:00 +10°C° 0 mm 2 mps 702 mmHg 78%
    06:00 +10°C° 0 mm 2 mps 702 mmHg 79%
    07:00 +12°C° 0 mm 2 mps 702 mmHg 76%
    08:00 +13°C° 0 mm 2 mps 702 mmHg 73%
    09:00 +14°C° 0 mm 2 mps 703 mmHg 70%
    10:00 +15°C° 0 mm 2 mps 702 mmHg 66%
    11:00 +16°C° 0 mm 2 mps 702 mmHg 63%
    12:00 +17°C° 0 mm 3 mps 702 mmHg 60%
    13:00 +17°C° 0 mm 3 mps 701 mmHg 61%
    14:00 +17°C° 0 mm 3 mps 701 mmHg 62%
    15:00 +16°C° 0 mm 3 mps 701 mmHg 63%
    16:00 +14°C° 0 mm 3 mps 700 mmHg 67%
    17:00 +13°C° 0 mm 3 mps 700 mmHg 72%
    18:00 +13°C° 0 mm 3 mps 699 mmHg 77%
    19:00 +12°C° 0.1 mm 3 mps 699 mmHg 78%
    20:00 +12°C° 0.1 mm 3 mps 699 mmHg 80%
    21:00 +12°C° 0.1 mm 4 mps 699 mmHg 81%
    22:00 +12°C° 0.2 mm 4 mps 699 mmHg 81%
    23:00 +12°C° 0.2 mm 4 mps 698 mmHg 82%

    18 November, Sunday

    Time Temperature Precipitation Wind Pressure Humidity
    00:00 +12°C° 0.2 mm 5 mps 698 mmHg 82%
    01:00 +12°C° 1 mm 4 mps 697 mmHg 84%
    02:00 +12°C° 1 mm 4 mps 697 mmHg 85%
    03:00 +11°C° 1 mm 4 mps 697 mmHg 87%
    04:00 +11°C° 1.1 mm 4 mps 696 mmHg 87%
    05:00 +11°C° 1.1 mm 4 mps 696 mmHg 87%
    06:00 +11°C° 1.1 mm 4 mps 696 mmHg 87%
    07:00 +11°C° 1.3 mm 4 mps 696 mmHg 86%
    08:00 +12°C° 1.3 mm 3 mps 697 mmHg 84%
    09:00 +12°C° 1.3 mm 3 mps 697 mmHg 83%
    10:00 +12°C° 1.2 mm 3 mps 697 mmHg 79%
    11:00 +13°C° 1.2 mm 3 mps 697 mmHg 75%
    12:00 +13°C° 1.2 mm 3 mps 697 mmHg 71%
    13:00 +13°C° 0.5 mm 3 mps 696 mmHg 72%
    14:00 +13°C° 0.5 mm 3 mps 696 mmHg 72%
    15:00 +13°C° 0.5 mm 3 mps 696 mmHg 72%
    16:00 +12°C° 0.5 mm 3 mps 695 mmHg 77%
    17:00 +12°C° 0.5 mm 2 mps 695 mmHg 81%
    18:00 +10°C° 0.5 mm 2 mps 695 mmHg 85%
    19:00 +10°C° 0.1 mm 2 mps 695 mmHg 86%
    20:00 +10°C° 0.1 mm 2 mps 695 mmHg 86%
    21:00 +9°C° 0.1 mm 2 mps 695 mmHg 87%
    22:00 +9°C° 0.1 mm 2 mps 695 mmHg 86%
    23:00 +9°C° 0.1 mm 2 mps 695 mmHg 86%

    19 November, Monday

    Time Temperature Precipitation Wind Pressure Humidity
    00:00 +9°C° 0.1 mm 2 mps 694 mmHg 86%
    01:00 +9°C° 0.2 mm 2 mps 694 mmHg 85%
    02:00 +9°C° 0.2 mm 2 mps 694 mmHg 84%
    03:00 +10°C° 0.2 mm 1 mps 694 mmHg 83%
    04:00 +10°C° 0 mm 1 mps 693 mmHg 83%
    05:00 +10°C° 0 mm 1 mps 693 mmHg 82%
    06:00 +9°C° 0 mm 1 mps 693 mmHg 82%
    07:00 +10°C° 0 mm 1 mps 693 mmHg 79%
    08:00 +11°C° 0 mm 1 mps 694 mmHg 76%
    09:00 +11°C° 0 mm 1 mps 694 mmHg 73%
    10:00 +12°C° 0.1 mm 1 mps 694 mmHg 68%
    11:00 +14°C° 0.1 mm 1 mps 694 mmHg 62%
    12:00 +14°C° 0.1 mm 0 mps 695 mmHg 57%
    13:00 +14°C° 0.1 mm 1 mps 694 mmHg 58%
    14:00 +14°C° 0.1 mm 1 mps 694 mmHg 59%
    15:00 +14°C° 0.1 mm 2 mps 694 mmHg 60%
    16:00 +13°C° 0.1 mm 2 mps 694 mmHg 65%
    17:00 +12°C° 0.1 mm 2 mps 694 mmHg 71%
    18:00 +10°C° 0.1 mm 2 mps 695 mmHg 76%
    19:00 +10°C° 0 mm 2 mps 695 mmHg 79%
    20:00 +9°C° 0 mm 2 mps 696 mmHg 82%
    21:00 +9°C° 0 mm 3 mps 696 mmHg 85%
    22:00 +9°C° 0 mm 3 mps 696 mmHg 86%
    23:00 +9°C° 0 mm 3 mps 696 mmHg 87%

    20 November, Tuesday

    Time Temperature Precipitation Wind Pressure Humidity
    00:00 +8°C° 0 mm 3 mps 696 mmHg 88%
    01:00 +8°C° 0 mm 3 mps 697 mmHg 88%
    02:00 +8°C° 0 mm 3 mps 697 mmHg 88%
    03:00 +8°C° 0 mm 3 mps 697 mmHg 88%
    04:00 +8°C° 0 mm 2 mps 697 mmHg 88%
    05:00 +8°C° 0 mm 2 mps 697 mmHg 89%
    06:00 +8°C° 0 mm 2 mps 697 mmHg 90%
    07:00 +9°C° 0 mm 2 mps 698 mmHg 87%
    08:00 +9°C° 0 mm 2 mps 699 mmHg 84%
    09:00 +10°C° 0 mm 3 mps 699 mmHg 81%
    10:00 +11°C° 0 mm 3 mps 700 mmHg 76%
    11:00 +12°C° 0 mm 4 mps 700 mmHg 70%
    12:00 +13°C° 0 mm 4 mps 700 mmHg 65%
    13:00 +13°C° 0 mm 4 mps 700 mmHg 64%
    14:00 +13°C° 0 mm 4 mps 700 mmHg 63%
    15:00 +13°C° 0 mm 5 mps 700 mmHg 61%
    16:00 +12°C° 0 mm 4 mps 700 mmHg 67%
    17:00 +11°C° 0 mm 3 mps 700 mmHg 72%
    18:00 +9°C° 0 mm 3 mps 700 mmHg 78%
    19:00 +9°C° 0 mm 3 mps 701 mmHg 79%
    20:00 +9°C° 0 mm 2 mps 701 mmHg 81%
    21:00 +8°C° 0 mm 2 mps 701 mmHg 83%
    22:00 +8°C° 0 mm 2 mps 701 mmHg 82%
    23:00 +8°C° 0 mm 2 mps 701 mmHg 81%
    Show more